Location: Observatory
(52.1446°N, 0.4624°W)
Time: 13:26:39
(UTC+00:00)

ISS - Pass Details

Date: 26 January 2019
Orbit: 403 x 411 km, 51.6° (Epoch: 20 February)

Event Time Altitude Azimuth Distance (km) Brightness Sun altitude
Rises 19:46:45 0° 258° (WSW) 2,337 1.1 -28.7°
Reaches altitude 10° 19:48:50 10° 257° (WSW) 1,478 -0.2 -29.0°
Enters shadow 19:49:30 15° 256° (WSW) 1,206 -0.7 -29.1°
